Terug naar catalogus

STARLINK-37315

ActiefCommunicatieSSO
NORAD 68816·PAYLOAD·🇺🇸 United States

Gelanceerd Apr 23, 2026 vanaf Vandenberg Space Force Base

Loading…

Volgende Passages (komende 24 uur)

TLE

VersSource: CelesTrak SupGP

Epoch: Sep 14, 2026, 21:13 UTC

1 68816C 26089Q   26257.88451389  .00056139  00000+0  17418-2 0  2575
2 68816  97.2852 103.7275 0001925  83.1732  94.1501 15.33425464    18

Volg STARLINK-37315 in realtime met AllMySat

Download on the App Store